Flag for Canada Weather past 2 weeks in Glace Bay, Nova Scotia, Canada

Now
34 °F

Light rain. Fog.


Feels Like: 24 °F
Forecast: 30 / 38 °F
Wind: 14 mph from Northwest

Location: Sydney

Current Time: Apr 28, 2015 at 9:33:32 AM

Latest Report: Apr 28, 2015 at 9:00 AM


Visibility: 2 mi

Pressure: 29.25 "Hg

Humidity: 93%

Dew point: 32 °F

Location of Glace BayLocation

Historic Weather in Glace Bay — Graph

°F

Glace Bay temperature yesterday

Maximum temperature yesterday: 39 °F (at 4:00 PM)
Minimum temperature yesterday: 32 °F (at 4:00 AM)
Average temperature yesterday: 35 °F

Past Weeks' High & Low Weather Summary

 TemperatureHumidityPressure
High54 °F (Apr 17, 2:00 PM)100% (Apr 14, 4:00 PM)30.45 "Hg (Apr 14, 4:00 PM)
Low21 °F (Apr 20, 3:00 AM)31% (Apr 20, 11:00 AM)29.27 "Hg (Apr 28, 8:00 AM)
Average34 °F81%29.89 "Hg
* Reported Apr 13 8:00 AM — Apr 28 8:00 AM, Glace Bay, Weather by CustomWeather, © 2015

Note: Actual official high and low records may vary slightly from our data, if they occured in-between our weather recording intervals... More about our weather records

Advertising

Glace Bay weather history for previous 24 hours

 ConditionsComfort  
Time TempWeatherWind HumidityBarometerVisibility
8:00 AM
Tue, Apr 28
32 °FLight snow. Ice fog.13 mph100%29.27 "Hg1 mi
7:00 AM32 °FIce fog.9 mph100%29.33 "Hg1 mi
6:00 AM32 °FLight snow. Ice fog.12 mph100%29.36 "Hg1 mi
5:00 AM34 °FLight rain. Low clouds.14 mph93%29.41 "Hg10 mi
4:00 AM34 °FLight rain. Overcast.15 mph93%29.46 "Hg15 mi
3:00 AM36 °FPassing clouds.12 mph87%29.50 "Hg15 mi
2:00 AM34 °FPassing clouds.12 mph93%29.54 "Hg15 mi
1:00 AM34 °FPassing clouds.14 mph93%29.56 "Hg15 mi
12:00 AM34 °FPassing clouds.9 mph93%29.59 "Hg15 mi
11:00 PM
Mon, Apr 27
34 °FPassing clouds.10 mph93%29.62 "Hg10 mi
10:00 PM32 °FIce fog.7 mph100%29.64 "Hg2 mi
9:00 PM34 °FFog.7 mph93%29.64 "Hg2 mi
8:00 PM34 °FFog.8 mph100%29.63 "Hg3 mi
7:00 PM37 °FPartly sunny.8 mph87%29.61 "Hg15 mi
6:00 PM39 °FPartly sunny.10 mph87%29.60 "Hg15 mi
5:00 PM39 °FOvercast.13 mph87%29.58 "Hg15 mi
4:00 PM39 °FOvercast.15 mph87%29.56 "Hg15 mi
3:00 PM37 °FOvercast.17 mph93%29.54 "Hg15 mi
2:00 PM36 °FLow clouds.20 mph93%29.51 "Hg7 mi
1:00 PM36 °FLight rain. Fog.18 mph93%29.47 "Hg3 mi
12:57 PM36 °FLight rain. Fog.14 mph93%29.47 "Hg3 mi
12:00 PM36 °FLight rain. Low clouds.17 mph93%29.43 "Hg7 mi
11:00 AM34 °FLight snow. Fog.16 mph100%29.39 "Hg3 mi
10:00 AM34 °FLight snow. Fog.10 mph100%29.35 "Hg2 mi
9:53 AM34 °FLight snow. Fog.8 mph100%29.35 "Hg2 mi
9:00 AM32 °FDrizzle. Ice fog.No wind100%29.33 "Hg1 mi
Weather by CustomWeather, © 2015

See weather overviewHow to use our weather pages